Regional Weather Roundup
Issued by NWS

Home | Current Version | Previous Version | Graphics & Text | Print | Product List | Glossary On
Versions: 1 2 3 4 5 6 7 8 9 10 11 12 13 14 15 16 17 18 19 20 21 22 23 24 25 26 27 28 29 30 31 32 33 34 35 36 37 38 39 40 41 42 43 44 45 46 47 48 49 50
000
ASUS43 KLMK 211202
RWRKY
KENTUCKY REGIONAL WEATHER ROUNDUP
NATIONAL WEATHER SERVICE LOUISVILLE KY
800 AM EDT TUE APR 21 2015

NOTE "FAIR" INDICATES FEW OR NO CLOUDS BELOW 12,000 FEET
WITH NO SIGNIFICANT WEATHER AND/OR OBSTRUCTIONS TO VISIBILITY.

KYZ001>023-026-027-061>063-070>075-211300-
WESTERN AND SOUTH CENTRAL KENTUCKY

CITY           SKY/WX    TMP DP  RH WIND       PRES   REMARKS
PADUCAH        CLEAR     46  36  68 SW6       29.92R
HENDERSON      CLEAR     45  36  70 SW9       29.88R
OWENSBORO      CLEAR     45  39  79 SW8       29.90R
HOPKINSVILLE   CLEAR     43  39  86 SW7       29.95R
BOWLING GREEN  SUNNY     47  38  71 SW7       29.94R
GLASGOW        NOT AVBL
$$

KYZ024-025-028>034-038-045-046-053-211300-
NORTH CENTRAL KENTUCKY

CITY           SKY/WX    TMP DP  RH WIND       PRES   REMARKS
LOUISVILLE/SDF SUNNY     48  35  60 SW10      29.86R
LOUISVILLE/LOU SUNNY     45  36  70 S6        29.87R
FORT KNOX      SUNNY     42  37  80 S5        29.86R
$$

KYZ035>037-039>044-047>052-055>060-089>105-211300-
NORTHEAST KENTUCKY

CITY           SKY/WX    TMP DP  RH WIND       PRES   REMARKS
LEXINGTON      SUNNY     44  36  73 SW9       29.87S
COVINGTON      MOSUNNY   44  34  67 S9        29.80S
FRANKFORT      SUNNY     44  36  73 SW8       29.85S
$$

KYZ054-064>069-076>088-106>120-211300-
SOUTHEAST KENTUCKY

CITY           SKY/WX    TMP DP  RH WIND       PRES   REMARKS
JACKSON        SUNNY     46  35  65 VRB3      29.90R
LONDON         SUNNY     47  41  80 SW5       29.92R
SOMERSET       NOT AVBL
MIDDLESBORO    MOSUNNY   45  43  92 W3        29.95R
MONTICELLO     SUNNY     44  44 100 CALM      29.96R
$$




USA.gov is the U.S. government's official web portal to all federal, state and local government web resources and services.